Weather reports worldwide

Advertisment
Solenzara, France (7765): temperature & dewpoint: 10.09.2019 05:00:00 - 16.09.2019 05:00:00 (CEST)Solenzara, France (7765): temperature 5cm: 10.09.2019 05:00:00 - 16.09.2019 05:00:00 (CEST)Solenzara, France (7765): temperature -20cm: 10.09.2019 05:00:00 - 16.09.2019 05:00:00 (CEST)Solenzara, France (7765): wind speed & gusts: 10.09.2019 05:00:00 - 16.09.2019 05:00:00 (CEST)Solenzara, France (7765): wind direction: 10.09.2019 05:00:00 - 16.09.2019 05:00:00 (CEST)Solenzara, France (7765): reduced air pressure: 10.09.2019 05:00:00 - 16.09.2019 05:00:00 (CEST)Solenzara, France (7765): visibility: 10.09.2019 05:00:00 - 16.09.2019 05:00:00 (CEST)Solenzara, France (7765): sunshine duration: 10.09.2019 05:00:00 - 16.09.2019 05:00:00 (CEST)Solenzara, France (7765): precipitation: 10.09.2019 05:00:00 - 16.09.2019 05:00:00 (CEST)
Date & Time tt [°C] td [°C] tt 5cm [°C] tt -20cm [°C] ff [km/h] ff [kn] fx [km/h] fx [kn] dd ppp [hPa] vv [km] sd [min] rr [mm]
16.09.2019 05:00:00 19,8 14,2 18,4 26,3 10 5 13 7 W 1020,1 60 0 0,0
16.09.2019 04:00:00 19,6 14,4 18,4 26,4 8 5 13 7 W 1020,4 60 0 0,0
16.09.2019 03:00:00 20,1 14,7 18,9 26,5 9 5 13 7 W 1020,6 60 0 0,0
16.09.2019 02:00:00 20,6 14,7 19,4 26,6 9 5 14 8 W 1020,8 60 0 0,0
16.09.2019 01:00:00 20,9 15,2 19,6 26,6 7 4 11 6 W 1021,0 60 0 0,0
16.09.2019 00:00:00 21,5 15,3 20,1 26,7 6 3 14 7 W 1021,2 60 0 0,0
15.09.2019 23:00:00 21,9 15,7 20,5 26,7 8 4 13 7 W 1021,4 60 0 0,0
15.09.2019 22:00:00 22,1 16,6 20,9 26,7 7 4 11 6 W 1021,8 60 0 0,0
15.09.2019 21:00:00 23,1 18,4 21,1 26,6 5 3 8 4 WNW 1021,9 60 0 0,0
15.09.2019 20:00:00 23,7 19,0 21,6 26,5 0 0 7 4 N 1021,7 60 0 0,0
15.09.2019 19:00:00 24,4 19,0 24,3 26,4 4 2 9 5 ENE 1021,8 60 0 0,0
15.09.2019 18:00:00 25,2 19,1 26,3 26,2 4 2 9 5 ESE 1022,0 60 0 0,0
15.09.2019 17:00:00 25,9 17,3 28,0 26,0 4 2 14 7 E 1022,0 45 53 0,0
15.09.2019 16:00:00 26,5 18,1 30,1 25,8 8 5 16 9 ESE 1022,2 60 60 0,0
15.09.2019 15:00:00 26,3 18,9 30,6 25,6 11 6 18 10 ESE 1022,7 56 60 0,0
15.09.2019 14:00:00 26,9 19,0 31,4 25,4 12 7 21 12 E 1023,2 50 60 0,0
15.09.2019 13:00:00 27,3 18,9 33,0 25,3 13 7 24 13 ENE 1023,7 20 60 0,0
15.09.2019 12:00:00 27,5 19,3 32,3 25,2 14 8 22 12 E 1024,0 60 60 0,0
15.09.2019 11:00:00 27,1 16,4 31,5 25,3 13 7 20 11 ENE 1024,4 60 60 0,0
15.09.2019 10:00:00 26,9 17,1 29,4 25,4 13 7 19 10 NNE 1024,4 60 60 0,0
15.09.2019 09:00:00 23,6 11,3 21,7 25,5 2 1 8 4 NW 1024,4 53 60 0,0
15.09.2019 08:00:00 20,9 10,1 18,9 25,6 6 3 17 9 NNW 1024,2 60 29 0,0
15.09.2019 07:00:00 20,1 9,3 18,9 25,7 11 6 20 11 W 1023,8 60 0 0,0
15.09.2019 06:00:00 20,1 9,3 18,9 25,9 12 7 19 10 W 1023,6 60 0 0,0
15.09.2019 05:00:00 20,3 9,8 19,0 26,0 11 6 18 10 W 1023,8 60 0 0,0
15.09.2019 04:00:00 20,6 9,8 18,9 26,1 10 5 15 8 W 1023,8 60 0 0,0
15.09.2019 03:00:00 20,4 9,9 17,9 26,2 9 5 14 7 W 1023,8 60 0 0,0
15.09.2019 02:00:00 20,9 9,8 18,9 26,3 9 5 14 8 W 1024,3 60 0 0,0
15.09.2019 01:00:00 20,8 12,5 18,5 26,4 5 3 12 7 W 1024,5 60 0 0,0
15.09.2019 00:00:00 20,9 11,8 17,2 26,5 6 3 9 5 W 1024,5 60 0 0,0
14.09.2019 23:00:00 21,7 10,5 19,2 26,5 5 3 11 6 WNW 1024,6 60 0 0,0
14.09.2019 22:00:00 23,2 12,8 21,5 26,5 7 4 22 12 W 1024,6 60 0 0,0
14.09.2019 21:00:00 23,7 13,6 22,3 26,5 11 6 19 10 WNW 1024,4 60 0 0,0
14.09.2019 20:00:00 24,3 12,9 22,8 26,4 9 5 16 9 W 1024,3 60 0 0,0
14.09.2019 19:00:00 26,4 12,8 24,7 26,3 4 2 7 4 NW 1024,2 60 38 0,0
14.09.2019 18:00:00 25,5 16,1 25,0 26,1 5 3 11 6 ESE 1024,4 60 26 0,0
14.09.2019 17:00:00 26,5 14,9 27,3 25,9 6 3 16 9 ESE 1024,3 41 37 0,0
14.09.2019 16:00:00 27,7 15,4 31,1 25,7 10 6 20 11 E 1024,9 60 60 0,0
14.09.2019 15:00:00 27,5 14,5 30,9 25,5 12 6 21 12 E 1025,4 60 60 0,0
14.09.2019 14:00:00 27,1 16,7 30,0 25,3 10 5 21 11 E 1026,0 60 60 0,0
14.09.2019 13:00:00 27,0 16,3 32,0 25,2 13 7 27 15 ENE 1026,3 60 60 0,0
14.09.2019 12:00:00 28,0 16,3 32,0 25,2 16 9 25 14 E 1026,3 60 60 0,0
14.09.2019 11:00:00 27,7 14,0 30,9 25,2 13 7 23 12 NE 1026,4 60 60 0,0
14.09.2019 10:00:00 28,4 11,0 30,5 25,3 16 9 22 12 N 1026,5 60 60 0,0
14.09.2019 09:00:00 25,1 11,3 21,6 25,4 5 3 16 9 W 1026,5 59 60 0,0
14.09.2019 08:00:00 21,6 9,8 19,3 25,6 10 6 19 11 W 1026,3 58 37 0,0
14.09.2019 07:00:00 20,3 9,5 19,1 25,7 12 6 22 12 W 1026,0 60 0 0,0
14.09.2019 06:00:00 20,4 9,3 19,1 25,8 13 7 22 12 W 1025,7 60 0 0,0
14.09.2019 05:00:00 20,3 8,9 18,9 25,9 13 7 22 12 W 1025,6 60 0 0,0
14.09.2019 04:00:00 20,0 9,5 18,7 26,0 14 7 22 12 W 1025,5 60 0 0,0
14.09.2019 03:00:00 20,0 10,4 18,7 26,1 11 6 19 10 W 1026,0 60 0 0,0
14.09.2019 02:00:00 19,8 11,0 17,8 26,2 10 6 14 7 W 1026,5 60 0 0,0
14.09.2019 01:00:00 20,5 12,7 17,4 26,3 5 3 9 5 NW 1026,7 51 0 0,0
14.09.2019 00:00:00 20,7 13,2 17,6 26,4 4 2 16 9 NNW 1026,6 60 0 0,0
13.09.2019 23:00:00 21,7 12,0 20,1 26,5 10 5 16 9 W 1026,6 60 0 0,0
13.09.2019 22:00:00 21,6 14,0 20,3 26,4 9 5 15 8 W 1026,7 42 0 0,0
13.09.2019 21:00:00 22,4 15,3 21,0 26,4 8 4 15 8 W 1026,7 39 0 0,0
13.09.2019 20:00:00 23,7 16,0 20,4 26,3 7 4 11 6 W 1026,6 39 1 0,0
13.09.2019 19:00:00 26,3 16,2 24,1 26,1 0 0 9 5 N 1026,4 36 60 0,0
13.09.2019 18:00:00 26,9 16,5 26,6 26,0 6 3 14 8 E 1026,5 39 60 0,0
13.09.2019 17:00:00 27,3 16,9 29,2 25,7 7 4 19 10 ENE 1026,6 39 60 0,0
13.09.2019 16:00:00 27,5 16,1 30,2 25,6 12 6 21 11 E 1026,9 38 60 0,0
13.09.2019 15:00:00 27,6 15,6 30,7 25,3 16 9 26 14 ENE 1027,4 42 60 0,0
13.09.2019 14:00:00 27,5 15,8 31,0 25,2 18 10 27 14 ENE 1027,9 41 60 0,0
13.09.2019 13:00:00 27,6 15,6 32,2 25,1 21 11 35 19 ENE 1028,0 44 60 0,0
13.09.2019 12:00:00 27,5 16,1 31,9 25,1 25 14 34 18 NE 1028,0 51 60 0,0
13.09.2019 11:00:00 27,2 15,6 30,8 25,2 24 13 32 17 NE 1028,0 60 60 0,0
13.09.2019 10:00:00 26,6 13,7 27,9 25,3 19 10 29 16 N 1028,0 60 60 0,0
13.09.2019 09:00:00 25,6 10,2 23,1 25,4 16 9 28 15 N 1027,6 60 60 0,0
13.09.2019 08:00:00 20,8 10,3 18,5 25,5 9 5 19 11 WNW 1027,5 55 48 0,0
13.09.2019 07:00:00 19,9 10,3 18,6 25,6 10 5 21 11 WNW 1027,3 60 0 0,0
13.09.2019 06:00:00 19,7 10,4 17,6 25,7 11 6 19 11 W 1027,3 60 0 0,0
13.09.2019 05:00:00 20,8 10,6 19,3 25,9 11 6 19 10 W 1027,0 60 0 0,0
13.09.2019 04:00:00 20,9 11,0 19,7 26,0 12 6 19 11 W 1026,9 60 0 0,0
13.09.2019 03:00:00 21,9 11,0 20,3 26,1 11 6 22 12 W 1027,0 60 0 0,0
13.09.2019 02:00:00 21,6 11,0 20,4 26,2 12 6 19 10 W 1027,4 60 0 0,0
13.09.2019 01:00:00 22,4 11,2 20,9 26,3 11 6 17 9 W 1027,2 60 0 0,0
13.09.2019 00:00:00 22,5 10,9 20,8 26,3 10 6 16 8 W 1027,1 60 0 0,0
12.09.2019 23:00:00 22,9 11,3 21,3 26,4 7 4 16 9 WNW 1026,9 60 0 0,0
12.09.2019 22:00:00 23,4 12,4 22,1 26,4 11 6 18 10 W 1026,6 60 0 0,0
12.09.2019 21:00:00 24,0 13,5 22,4 26,3 9 5 18 10 W 1026,4 60 0 0,0
12.09.2019 20:00:00 24,0 15,0 22,3 26,2 7 4 13 7 W 1026,3 60 3 0,0
12.09.2019 19:00:00 26,3 16,8 25,6 26,1 10 5 22 12 NE 1026,4 59 60 0,0
12.09.2019 18:00:00 26,9 16,5 27,3 25,9 17 9 26 14 NE 1026,4 60 60 0,0
12.09.2019 17:00:00 27,6 17,7 29,6 25,7 10 6 18 10 ENE 1026,3 60 60 0,0
12.09.2019 16:00:00 27,7 17,2 31,0 25,4 9 5 22 12 E 1026,3 58 60 0,0
12.09.2019 15:00:00 27,6 18,9 30,7 25,2 13 7 26 14 E 1026,7 50 60 0,0
12.09.2019 14:00:00 27,5 19,0 30,7 25,0 15 8 29 16 E 1027,1 57 60 0,0
12.09.2019 13:00:00 27,1 18,4 30,6 24,9 19 10 26 14 ENE 1027,2 58 60 0,0
12.09.2019 12:00:00 27,4 14,8 33,1 24,8 16 9 22 12 E 1027,3 60 60 0,0
12.09.2019 11:00:00 27,1 14,1 33,2 24,9 14 7 18 10 E 1026,8 60 60 0,0
12.09.2019 10:00:00 27,7 12,9 31,6 24,9 6 3 11 6 E 1026,3 60 60 0,0
12.09.2019 09:00:00 23,8 13,1 22,4 25,0 7 4 19 10 WSW 1025,7 56 60 0,0
12.09.2019 08:00:00 20,4 12,4 18,0 25,2 10 6 19 10 W 1025,1 60 49 0,0
12.09.2019 07:00:00 18,9 13,5 17,4 25,3 11 6 19 10 W 1024,7 60 0 0,0
12.09.2019 06:00:00 18,8 14,3 17,9 25,4 11 6 20 11 W 1023,9 60 0 0,0
12.09.2019 05:00:00 19,2 14,5 18,1 25,5 11 6 17 9 W 1023,5 60 0 0,0
12.09.2019 04:00:00 19,4 14,9 17,1 25,6 9 5 15 8 W 1023,5 60 0 0,0
12.09.2019 03:00:00 19,6 14,8 17,3 25,7 2 1 13 7 WNW 1023,2 60 0 0,0
12.09.2019 02:00:00 19,7 15,3 17,8 25,8 5 3 13 7 WSW 1023,0 60 0 0,0
12.09.2019 01:00:00 20,7 15,0 19,6 25,9 10 5 20 11 W 1022,6 60 0 0,0
12.09.2019 00:00:00 21,0 14,9 19,7 25,9 11 6 20 11 WSW 1022,4 60 0 0,0
11.09.2019 23:00:00 21,1 15,6 19,8 25,9 11 6 18 10 W 1022,3 60 0 0,0
11.09.2019 22:00:00 21,3 17,1 20,2 25,9 9 5 16 9 WNW 1022,1 60 0 0,0
11.09.2019 21:00:00 22,1 17,5 21,1 25,9 9 5 14 7 W 1021,9 60 0 0,0
11.09.2019 20:00:00 23,5 18,2 20,7 25,8 4 2 8 4 WSW 1021,4 60 4 0,0
11.09.2019 19:00:00 24,8 17,8 24,1 25,7 6 3 14 8 S 1020,6 60 58 0,0
11.09.2019 18:00:00 25,5 17,4 26,4 25,6 10 5 18 10 SSE 1020,1 54 60 0,0
11.09.2019 17:00:00 25,8 18,0 29,1 25,4 12 7 20 11 SSE 1019,7 21 60 0,0
11.09.2019 16:00:00 26,0 17,1 30,2 25,2 14 7 21 11 SSE 1019,5 23 60 0,0
11.09.2019 15:00:00 26,3 16,8 29,8 25,0 13 7 21 11 ESE 1019,9 28 60 0,0
11.09.2019 14:00:00 26,7 16,6 29,7 24,9 14 8 26 14 E 1020,2 30 60 0,0
11.09.2019 13:00:00 26,2 17,3 30,9 24,8 19 11 33 18 ENE 1019,9 20 60 0,0
11.09.2019 12:00:00 26,3 17,6 30,9 24,8 22 12 35 19 NE 1019,4 25 60 0,0
11.09.2019 11:00:00 26,1 15,8 28,8 24,9 16 9 26 14 N 1019,1 15 60 0,0
11.09.2019 10:00:00 24,9 16,9 26,7 25,0 16 9 25 13 N 1018,8 38 60 0,0
11.09.2019 09:00:00 22,5 16,1 20,7 25,1 5 3 16 9 WNW 1018,2 60 60 0,0
11.09.2019 08:00:00 19,6 14,0 17,5 25,2 10 5 21 11 W 1017,6 56 43 0,0
11.09.2019 07:00:00 18,3 14,4 17,3 25,4 11 6 21 11 W 1016,6 60 0 0,0
11.09.2019 06:00:00 18,4 15,1 17,5 25,5 12 7 23 12 W 1016,3 60 0 0,0
11.09.2019 05:00:00 19,0 15,5 18,1 25,6 12 7 19 11 W 1016,1 60 0 0,0
11.09.2019 04:00:00 19,5 16,2 18,5 25,7 12 6 20 11 W 1016,2 60 0 0,0
11.09.2019 03:00:00 19,8 16,4 18,3 25,9 7 4 19 10 WNW 1015,8 59 0 0,0
11.09.2019 02:00:00 20,2 17,2 18,9 26,0 11 6 19 11 W 1015,7 59 0 0,0
11.09.2019 01:00:00 19,6 17,7 18,3 26,1 11 6 19 11 W 1015,3 53 0 0,0
11.09.2019 00:00:00 19,5 17,8 18,4 26,2 10 6 18 10 W 1015,2 53 0 0,0
10.09.2019 23:00:00 19,7 18,0 18,6 26,3 7 4 17 9 NW 1015,2 48 0 0,0
10.09.2019 22:00:00 19,9 18,0 18,4 26,3 9 5 15 8 W 1014,9 58 0 0,2
10.09.2019 21:00:00 20,1 17,3 18,5 26,3 10 5 16 9 NNW 1014,4 48 0 0,2
10.09.2019 20:00:00 20,0 17,8 17,9 26,2 9 5 24 13 WNW 1013,5 47 0 1,4
10.09.2019 19:00:00 22,4 16,9 22,0 26,0 10 5 18 10 W 1013,1 60 0 0,0
10.09.2019 18:00:00 23,8 13,6 24,8 25,9 4 2 13 7 SE 1012,8 60 2 0,0
10.09.2019 17:00:00 24,2 14,0 26,4 25,7 6 3 17 9 SE 1013,0 60 33 0,0
10.09.2019 16:00:00 25,2 15,8 28,6 25,5 11 6 23 12 E 1013,0 55 60 0,0
10.09.2019 15:00:00 25,6 15,9 29,4 25,3 15 8 22 12 E 1013,2 54 60 0,0
10.09.2019 14:00:00 25,3 15,6 27,5 25,2 13 7 21 11 E 1013,3 60 52 0,0
10.09.2019 13:00:00 24,6 15,5 28,2 25,1 11 6 19 10 ESE 1013,9 60 31 0,0
10.09.2019 12:00:00 24,6 15,2 28,7 25,1 10 5 15 8 ESE 1014,5 60 28 0,0
10.09.2019 11:00:00 24,0 14,4 24,9 25,1 8 5 16 9 ENE 1014,4 59 5 0,0
10.09.2019 10:00:00 23,4 13,8 24,4 25,2 11 6 20 11 NNE 1014,5 58 21 0,0
10.09.2019 09:00:00 22,7 13,5 21,0 25,2 6 3 16 8 WNW 1014,2 51 42 0,0
10.09.2019 08:00:00 20,1 12,1 19,4 25,4 9 5 15 8 W 1014,3 60 0 0,0
10.09.2019 07:00:00 19,6 10,3 19,3 25,5 8 5 18 10 W 1014,2 60 0 0,0
10.09.2019 06:00:00 19,5 9,7 18,3 25,6 9 5 18 10 W 1014,4 60 0 0,0
10.09.2019 05:00:00 18,9 9,4 17,1 25,8 11 6 18 10 W 1014,4 60 0 0,0

tt = temperature
td = dewpoint
tt 5cm = temperature 5cm
tt -20cm = temperature -20cm
ff = wind speed
fx = gusts
dd = wind direction
ppp = reduced air pressure
vv = visibility
sd = sunshine duration
rr = precipitation

Next stations